Location: Unspecified
(42.3650°N, 71.1030°W)
Time: 14:34:35
(UTC+00:00)

Explorer 11/Cluster Stage 4 - Pass Details

Date: 24 June 2024
Orbit: 465 x 1215 km, 28.8° (Epoch: 21 July)

Event Time Altitude Azimuth Distance (km) Brightness Sun altitude
Rises 04:37:39 0° 258° (WSW) 4,067 10.1 -24.2°
Enters shadow 04:40:59 - 244° (WSW) 3,180 9.4 -24.2°
Reaches altitude 10° 04:41:39 10° 241° (WSW) 3,021 - -24.2°
Maximum altitude 04:46:19 18° 202° (SSW) 2,356 - -24.2°
Drops below altitude 10° 04:50:36 10° 163° (SSE) 2,721 - -24.2°
Sets 04:53:57 0° 144° (SE) 3,517 - -24.2°
